[[{"header":{"parameterUnit":"m.s-1","parameterCategory":1,"la1":30.2992,"la2":30.254,"lo1":-89.0895,"lo2":-89.0443,"dy":0.0025,"dx":0.0025,"nx":19,"ny":19,"refTime":"2026-05-05T03:00:00:Z","depth":0,"parameterNumber":2,"parameterNumberName":"U-component_of_WINDS"},"data":[0,0,0,-1.8048,-1.8049,-1.8115,-1.8115,-1.819,-1.8191,0,0,0,0,0,0,0,0,0,0,0,-1.8023,-1.8024,-1.8048,-1.8049,-1.8115,-1.8115,-1.819,-1.8191,0,0,0,0,0,0,0,0,0,0,0,-1.8023,-1.8024,-1.8024,-1.805,-1.8115,-1.8115,-1.819,-1.8144,0,0,0,0,0,0,0,0,0,0,-1.8081,-1.8053,-1.8023,-1.8024,-1.805,-1.8115,-1.8115,-1.8142,-1.8147,-1.8157,0,-1.8164,0,-1.8179,-1.8195,-1.8195,0,0,0,-1.8053,-1.8049,-1.8072,-1.8024,-1.8051,-1.8115,-1.8086,-1.8144,-1.815,-1.8163,-1.8166,-1.8169,-1.818,-1.8196,-1.8196,-1.8243,-1.8243,0,0,-1.805,-1.8032,-1.8068,-1.8075,-1.8065,-1.8084,-1.8088,-1.8148,-1.8149,-1.8166,-1.8171,-1.8181,-1.8196,-1.8197,-1.8243,-1.8243,0,0,0,-1.8037,-1.8029,-1.8051,-1.8072,-1.8084,-1.8086,-1.8091,-1.8147,-1.8155,-1.8171,-1.8182,-1.8197,-1.8197,-1.8243,-1.8243,-1.8227,0,0,0,-1.8035,-1.8022,-1.8049,-1.8039,-1.8083,-1.8116,-1.8088,-1.8151,-1.8158,-1.8182,-1.8197,-1.8198,-1.8243,-1.8243,-1.8228,-1.8223,0,0,0,-1.8021,-1.802,-1.8028,-1.8038,-1.8065,-1.8116,-1.8128,-1.8153,-1.8165,-1.8196,-1.8198,-1.8243,-1.8243,-1.8228,-1.8223,-1.823,0,0,0,-1.8001,-1.8013,-1.8027,-1.8045,-1.8065,-1.8106,-1.8128,-1.8159,-1.8184,-1.8197,-1.8243,-1.8243,-1.8228,-1.8224,-1.823,-1.8232,-1.8231,0,0,-1.8006,-1.8013,-1.8025,-1.804,-1.8074,-1.8097,-1.813,-1.8169,-1.8188,-1.8223,-1.8225,-1.8228,-1.8223,-1.823,-1.8234,-1.8233,0,0,0,-1.8021,-1.8029,-1.8042,-1.8065,-1.8096,-1.8121,-1.8158,-1.8172,-1.8204,-1.8202,-1.8233,-1.8231,-1.8235,-1.8237,-1.8236,-1.8241,-1.8243,-1.8243,-1.8243,-1.8003,-1.8027,-1.8048,-1.8081,-1.8103,-1.814,-1.8161,-1.8187,-1.8204,-1.8211,-1.8222,-1.8221,-1.8222,-1.8222,-1.8227,-1.8225,-1.8225,-1.8225,-1.8225,-1.8013,-1.8028,-1.8052,-1.8082,-1.8107,-1.8132,-1.8169,-1.8181,-1.8208,-1.8215,-1.822,-1.8225,-1.822,-1.8226,-1.8224,-1.8224,-1.8224,-1.8224,-1.8224,-1.8003,-1.8015,-1.8033,-1.8069,-1.8095,-1.8127,-1.8152,-1.8175,-1.8196,-1.8201,-1.8215,-1.8215,-1.8218,-1.8206,-1.8206,-1.8206,-1.8206,-1.8206,-1.8206,-1.7986,-1.8007,-1.8026,-1.806,-1.8078,-1.8105,-1.8143,-1.8162,-1.8188,-1.8202,-1.8203,-1.8219,-1.8216,-1.8214,-1.8206,-1.8206,-1.8206,-1.8206,-1.8206,-1.7987,-1.7991,-1.8019,-1.8037,-1.8079,-1.8103,-1.8132,-1.8168,-1.8186,-1.8198,-1.8214,-1.8208,-1.8216,-1.8217,-1.8216,-1.8209,-1.8209,-1.8209,-1.8209,-1.7979,-1.7985,-1.802,-1.8047,-1.8077,-1.8106,-1.8138,-1.8168,-1.8201,-1.8214,-1.8218,-1.8219,-1.8218,-1.8227,-1.8227,-1.8227,-1.8223,-1.8223,-1.8223,-1.798,-1.7991,-1.8013,-1.8045,-1.808,-1.811,-1.814,-1.8171,-1.8209,-1.8224,-1.8225,-1.8224,-1.8225,-1.8224,-1.8238,-1.8238,-1.8238,0,0]},{"header":{"parameterUnit":"m.s-1","parameterCategory":1,"la1":30.2992,"la2":30.254,"lo1":-89.0895,"lo2":-89.0443,"dy":0.0025,"dx":0.0025,"nx":19,"ny":19,"refTime":"2026-05-05T03:00:00:Z","depth":0,"parameterNumber":3,"parameterNumberName":"V-component_of_WINDS"},"data":[0,0,0,6.4101,6.4103,6.4171,6.4172,6.4274,6.4275,0,0,0,0,0,0,0,0,0,0,0,6.409,6.4091,6.4101,6.4103,6.4171,6.4172,6.4274,6.4275,0,0,0,0,0,0,0,0,0,0,0,6.409,6.4091,6.4093,6.4103,6.4171,6.4172,6.4274,6.4216,0,0,0,0,0,0,0,0,0,0,6.4147,6.4147,6.4091,6.4093,6.4104,6.4171,6.4172,6.4213,6.422,6.425,0,6.428,0,6.428,6.4283,6.4283,0,0,0,6.4095,6.4142,6.4152,6.4093,6.4104,6.4171,6.4138,6.4217,6.4224,6.4258,6.4281,6.4285,6.4281,6.4284,6.4284,6.4489,6.449,0,0,6.4091,6.4107,6.4147,6.4157,6.4149,6.4136,6.414,6.4221,6.4246,6.4282,6.4287,6.4283,6.4285,6.4285,6.4488,6.4489,0,0,0,6.4085,6.4105,6.4113,6.4153,6.4165,6.4138,6.4143,6.4242,6.4244,6.4288,6.4284,6.4285,6.4287,6.4486,6.4488,6.4573,0,0,0,6.4083,6.4102,6.4112,6.4122,6.4164,6.4205,6.4163,6.4238,6.4247,6.4284,6.4285,6.4288,6.4485,6.4487,6.4567,6.4609,0,0,0,6.4082,6.4102,6.4116,6.4123,6.4154,6.4203,6.4209,6.424,6.4245,6.4284,6.4288,6.4484,6.4487,6.4562,6.4601,6.467,0,0,0,6.4086,6.4187,6.4117,6.4228,6.4153,6.4255,6.4208,6.4282,6.4325,6.4286,6.4485,6.4488,6.4561,6.4596,6.4664,6.4731,6.476,0,0,6.4222,6.4204,6.4268,6.4207,6.4327,6.4243,6.4374,6.4396,6.4383,6.4454,6.4459,6.4569,6.46,6.4669,6.4917,6.494,0,0,0,6.4316,6.4363,6.4391,6.4434,6.4456,6.4478,6.4478,6.4487,6.4547,6.4424,6.4611,6.4629,6.4669,6.47,6.472,6.4753,6.4503,6.4503,6.4502,6.4531,6.4513,6.4618,6.4609,6.4651,6.4653,6.4686,6.4698,6.4662,6.4708,6.4729,6.4882,6.4919,6.4934,6.4969,6.4762,6.4762,6.4762,6.4763,6.473,6.4793,6.4749,6.4836,6.4815,6.4887,6.4893,6.4867,6.4931,6.4864,6.4897,6.4826,6.496,6.499,6.4769,6.4768,6.4767,6.4766,6.4766,6.4869,6.4896,6.4907,6.4971,6.5022,6.5007,6.5073,6.505,6.5029,6.5062,6.5083,6.5082,6.5079,6.5074,6.5075,6.5075,6.5076,6.5076,6.5076,6.5009,6.5019,6.5078,6.5112,6.5139,6.5171,6.5177,6.5202,6.5224,6.5202,6.5202,6.5165,6.4977,6.4931,6.5085,6.5083,6.5082,6.5081,6.5081,6.5218,6.5168,6.5259,6.5286,6.5326,6.538,6.5351,6.5406,6.5423,6.5456,6.5412,6.5277,6.5255,6.5239,6.5201,6.5415,6.5415,6.5415,6.5415,6.5336,6.5324,6.5414,6.546,6.5502,6.5487,6.559,6.5596,6.5593,6.5603,6.5569,6.5516,6.5501,6.5489,6.5467,6.5431,6.5699,6.5699,6.57,6.5465,6.5456,6.5549,6.5549,6.558,6.5606,6.5703,6.5757,6.5743,6.5711,6.5611,6.5599,6.5514,6.5487,6.5451,6.5418,6.5352,0,0]}]]